| time (UTC) | temp F | wind direction | speed MPH | gust MPH | rain 1hr in | rain 24hr in | rain mn in | humidity % | barometer mb |
| 20260901221527 | 70 | 252 | 0.0 | 0.0 | 0.00 | 0.19 | 0.17 | 93 | 1015.0 |
| 20260901220027 | 70 | 330 | 0.0 | 0.0 | 0.00 | 0.19 | 0.17 | 93 | 1014.8 |
| 20260901214526 | 70 | 319 | 0.0 | 0.0 | 0.03 | 0.19 | 0.17 | 94 | 1014.7 |
| 20260901213029 | 70 | 346 | 0.0 | 2.0 | 0.06 | 0.19 | 0.17 | 94 | 1014.5 |
| 20260901211529 | 71 | 359 | 0.0 | 0.0 | 0.06 | 0.19 | 0.17 | 93 | 1014.6 |
| 20260901210013 | 71 | 341 | 0.0 | 2.0 | 0.06 | 0.19 | 0.17 | 92 | 1014.4 |
| 20260901204526 | 72 | 11 | 0.0 | 1.0 | 0.03 | 0.16 | 0.14 | 91 | 1014.3 |
| 20260901203028 | 73 | 11 | 0.0 | 4.0 | 0.00 | 0.13 | 0.11 | 90 | 1014.2 |
| 20260901201529 | 73 | 359 | 0.0 | 2.0 | 0.00 | 0.13 | 0.11 | 90 | 1014.4 |
| 20260901200023 | 73 | 360 | 0.0 | 6.0 | 0.00 | 0.13 | 0.11 | 90 | 1013.9 |
| 20260901194533 | 74 | 360 | 0.0 | 4.0 | 0.00 | 0.13 | 0.11 | 89 | 1014.2 |
| 20260901193024 | 74 | 8 | 0.0 | 3.0 | 0.00 | 0.13 | 0.11 | 89 | 1014.0 |
| 20260901191545 | 76 | 360 | 0.0 | 1.0 | 0.00 | 0.13 | 0.11 | 87 | 1013.7 |
| 20260901190033 | 77 | 20 | 0.0 | 0.0 | 0.00 | 0.13 | 0.11 | 87 | 1013.7 |
| 20260901184529 | 77 | 326 | 0.0 | 0.0 | 0.00 | 0.13 | 0.11 | 86 | 1013.7 |
| 20260901183019 | 78 | 325 | 0.0 | 0.0 | 0.00 | 0.13 | 0.11 | 85 | 1013.8 |
| 20260901181528 | 78 | 96 | 0.0 | 0.0 | 0.00 | 0.13 | 0.11 | 85 | 1013.7 |
| 20260901180032 | 76 | 96 | 0.0 | 0.0 | 0.00 | 0.13 | 0.11 | 88 | 1013.6 |
| 20260901174534 | 75 | 295 | 0.0 | 0.0 | 0.00 | 0.13 | 0.11 | 91 | 1013.6 |
| 20260901173016 | 74 | 61 | 0.0 | 0.0 | 0.00 | 0.13 | 0.11 | 93 | 1013.8 |
| 20260901171525 | 73 | 239 | 0.0 | 0.0 | 0.00 | 0.13 | 0.11 | 94 | 1013.7 |
| 20260901170031 | 73 | 250 | 0.0 | 0.0 | 0.00 | 0.13 | 0.11 | 94 | 1013.6 |
| 20260901164532 | 72 | 2 | 0.0 | 3.0 | 0.00 | 0.13 | 0.11 | 95 | 1013.9 |
| 20260901163014 | 72 | 122 | 0.0 | 0.0 | 0.00 | 0.13 | 0.11 | 96 | 1013.9 |
| 20260901161527 | 71 | 178 | 0.0 | 0.0 | 0.00 | 0.13 | 0.11 | 96 | 1014.0 |
| 20260901160032 | 71 | 151 | 0.0 | 0.0 | 0.00 | 0.13 | 0.11 | 96 | 1014.4 |
| 20260901154533 | 70 | 112 | 0.0 | 0.0 | 0.00 | 0.13 | 0.11 | 96 | 1014.9 |
| 20260901153031 | 70 | 110 | 0.0 | 0.0 | 0.00 | 0.13 | 0.11 | 96 | 1015.2 |
| 20260901151532 | 70 | 37 | 0.0 | 0.0 | 0.00 | 0.13 | 0.11 | 96 | 1015.2 |
| 20260901150033 | 70 | 46 | 0.0 | 0.0 | 0.00 | 0.13 | 0.11 | 96 | 1015.3 |
| 20260901144537 | 69 | 46 | 0.0 | 0.0 | 0.00 | 0.13 | 0.11 | 96 | 1014.9 |
| 20260901143007 | 69 | 42 | 0.0 | 0.0 | 0.00 | 0.13 | 0.11 | 96 | 1015.1 |
| 20260901141533 | 69 | 60 | 0.0 | 0.0 | 0.01 | 0.13 | 0.11 | 96 | 1015.0 |
| 20260901140058 | 69 | 276 | 0.0 | 0.0 | 0.03 | 0.13 | 0.11 | 96 | 1014.9 |
| 20260901134535 | 68 | 288 | 0.0 | 0.0 | 0.05 | 0.13 | 0.11 | 96 | 1015.1 |
| 20260901133007 | 68 | 295 | 0.0 | 0.0 | 0.09 | 0.13 | 0.11 | 96 | 1015.2 |
| 20260901131513 | 68 | 295 | 0.0 | 0.0 | 0.09 | 0.12 | 0.10 | 96 | 1015.0 |
| 20260901130015 | 68 | 295 | 0.0 | 0.0 | 0.07 | 0.10 | 0.08 | 95 | 1015.7 |
| 20260901124521 | 68 | 295 | 0.0 | 0.0 | 0.05 | 0.08 | 0.06 | 95 | 1015.8 |
| 20260901123005 | 68 | 295 | 0.0 | 0.0 | 0.01 | 0.04 | 0.02 | 95 | 1015.6 |
| 20260901121509 | 68 | 295 | 0.0 | 0.0 | 0.00 | 0.03 | 0.01 | 95 | 1015.5 |
| 20260901120019 | 68 | 295 | 0.0 | 0.0 | 0.00 | 0.03 | 0.01 | 95 | 1015.6 |
| 20260901114530 | 67 | 295 | 0.0 | 0.0 | 0.00 | 0.03 | 0.01 | 95 | 1015.1 |
| 20260901113030 | 67 | 295 | 0.0 | 0.0 | 0.00 | 0.03 | 0.01 | 95 | 1015.0 |
| 20260901111507 | 67 | 295 | 0.0 | 0.0 | 0.00 | 0.03 | 0.01 | 95 | 1015.0 |
| 20260901110013 | 67 | 295 | 0.0 | 0.0 | 0.00 | 0.03 | 0.01 | 95 | 1015.1 |
| 20260901104516 | 67 | 295 | 0.0 | 0.0 | 0.00 | 0.03 | 0.01 | 95 | 1015.1 |
| 20260901103024 | 67 | 295 | 0.0 | 0.0 | 0.00 | 0.03 | 0.01 | 95 | 1015.0 |
| 20260901101550 | 67 | 295 | 0.0 | 0.0 | 0.00 | 0.03 | 0.01 | 95 | 1014.9 |
| 20260901100007 | 67 | 295 | 0.0 | 0.0 | 0.00 | 0.03 | 0.01 | 95 | 1015.0 |
| 20260901094520 | 68 | 295 | 0.0 | 0.0 | 0.00 | 0.03 | 0.01 | 95 | 1014.9 |
| 20260901093021 | 67 | 265 | 0.0 | 0.0 | 0.00 | 0.03 | 0.01 | 95 | 1015.0 |
| 20260901091534 | 68 | 265 | 0.0 | 0.0 | 0.00 | 0.03 | 0.01 | 95 | 1015.1 |
| 20260901090030 | 68 | 265 | 0.0 | 0.0 | 0.00 | 0.03 | 0.01 | 95 | 1015.4 |
| 20260901084508 | 67 | 265 | 0.0 | 0.0 | 0.00 | 0.03 | 0.01 | 95 | 1015.2 |
| 20260901083015 | 67 | 265 | 0.0 | 0.0 | 0.00 | 0.03 | 0.01 | 95 | 1015.6 |
| 20260901081523 | 67 | 265 | 0.0 | 0.0 | 0.00 | 0.03 | 0.01 | 95 | 1015.4 |
| 20260901080056 | 67 | 265 | 0.0 | 0.0 | 0.00 | 0.03 | 0.01 | 95 | 1015.6 |
| 20260901074530 | 67 | 265 | 0.0 | 0.0 | 0.00 | 0.03 | 0.01 | 95 | 1015.9 |
| 20260901073015 | 67 | 278 | 0.0 | 0.0 | 0.00 | 0.03 | 0.01 | 95 | 1016.0 |
| 20260901071518 | 67 | 278 | 0.0 | 0.0 | 0.00 | 0.03 | 0.01 | 95 | 1016.1 |
| 20260901070029 | 67 | 274 | 0.0 | 0.0 | 0.00 | 0.03 | 0.01 | 95 | 1016.2 |
| 20260901064504 | 67 | 274 | 0.0 | 0.0 | 0.00 | 0.03 | 0.01 | 95 | 1016.3 |
| 20260901063011 | 67 | 274 | 0.0 | 0.0 | 0.01 | 0.03 | 0.01 | 95 | 1016.3 |
| 20260901061516 | 67 | 274 | 0.0 | 0.0 | 0.01 | 0.03 | 0.01 | 95 | 1016.4 |
| 20260901060020 | 67 | 274 | 0.0 | 0.0 | 0.01 | 0.03 | 0.01 | 95 | 1016.7 |
| 20260901054533 | 67 | 274 | 0.0 | 0.0 | 0.01 | 0.03 | 0.01 | 95 | 1016.7 |
| 20260901053006 | 67 | 274 | 0.0 | 0.0 | 0.00 | 0.02 | 0.00 | 94 | 1016.9 |
| 20260901051512 | 67 | 274 | 0.0 | 0.0 | 0.00 | 0.02 | 0.00 | 94 | 1016.8 |
| 20260901050018 | 67 | 274 | 0.0 | 0.0 | 0.00 | 0.02 | 0.00 | 94 | 1017.1 |
| 20260901044523 | 67 | 274 | 0.0 | 0.0 | 0.00 | 0.02 | 0.00 | 94 | 1017.4 |
| 20260901043033 | 67 | 275 | 0.0 | 0.0 | 0.00 | 0.02 | 0.00 | 94 | 1017.3 |
| 20260901041507 | 67 | 275 | 0.0 | 0.0 | 0.00 | 0.02 | 0.00 | 94 | 1017.2 |
| 20260901040013 | 67 | 275 | 0.0 | 0.0 | 0.00 | 0.02 | 0.00 | 94 | 1017.3 |
| 20260901034534 | 67 | 275 | 0.0 | 0.0 | 0.00 | 0.02 | 0.02 | 94 | 1017.3 |
| 20260901033026 | 67 | 275 | 0.0 | 0.0 | 0.00 | 0.02 | 0.02 | 94 | 1017.5 |
| 20260901031530 | 67 | 275 | 0.0 | 0.0 | 0.00 | 0.02 | 0.02 | 94 | 1017.5 |
| 20260901030016 | 68 | 275 | 0.0 | 0.0 | 0.00 | 0.02 | 0.02 | 94 | 1017.6 |
| 20260901024536 | 67 | 274 | 0.0 | 0.0 | 0.00 | 0.02 | 0.02 | 94 | 1017.7 |
| 20260901023027 | 67 | 274 | 0.0 | 0.0 | 0.00 | 0.02 | 0.02 | 94 | 1017.7 |
| 20260901021530 | 67 | 274 | 0.0 | 0.0 | 0.00 | 0.02 | 0.02 | 93 | 1017.8 |
| 20260901020035 | 67 | 274 | 0.0 | 0.0 | 0.00 | 0.02 | 0.02 | 93 | 1018.0 |
| 20260901014514 | 67 | 276 | 0.0 | 0.0 | 0.00 | 0.02 | 0.02 | 93 | 1017.8 |
| 20260901013018 | 68 | 276 | 0.0 | 0.0 | 0.01 | 0.02 | 0.02 | 93 | 1017.7 |
| 20260901011529 | 67 | 276 | 0.0 | 0.0 | 0.01 | 0.02 | 0.02 | 93 | 1017.7 |
| 20260901010029 | 67 | 274 | 0.0 | 0.0 | 0.01 | 0.02 | 0.02 | 93 | 1017.8 |
| 20260901004534 | 68 | 274 | 0.0 | 0.0 | 0.02 | 0.02 | 0.02 | 92 | 1017.9 |
| 20260901003013 | 68 | 274 | 0.0 | 0.0 | 0.01 | 0.01 | 0.01 | 92 | 1017.9 |
| 20260901001525 | 69 | 274 | 0.0 | 0.0 | 0.01 | 0.01 | 0.01 | 91 | 1017.9 |
| 20260901000024 | 69 | 274 | 0.0 | 0.0 | 0.01 | 0.01 | 0.01 | 91 | 1017.8 |
| 20260831234532 | 69 | 274 | 0.0 | 0.0 | 0.00 | 0.00 | 0.00 | 91 | 1017.9 |
| 20260831233033 | 69 | 274 | 0.0 | 0.0 | 0.00 | 0.00 | 0.00 | 90 | 1017.8 |
| 20260831231550 | 69 | 271 | 0.0 | 0.0 | 0.00 | 0.00 | 0.00 | 90 | 1017.8 |
| 20260831230027 | 70 | 271 | 0.0 | 0.0 | 0.00 | 0.00 | 0.00 | 91 | 1018.0 |
| 20260831224509 | 70 | 271 | 0.0 | 0.0 | 0.00 | 0.00 | 0.00 | 90 | 1018.2 |
| 20260831223007 | 70 | 270 | 0.0 | 0.0 | 0.00 | 0.00 | 0.00 | 90 | 1018.2 |